Wind_Speed
61 63 64 66 68 70 71 72 73 74 75 75 75 75 76 76 76 77 78 79 79 80 80 81 81 80 79 77 75 74 72 71 70 69 70 74 75 73 75 76 77 77 77 78 79 78 78 78 79 81 80 77 75 75 75 73 72 70 66 60 57 56 57 58 59 60 60 62 64 65 66 66 64 61 57 53 49 46 42 43 48 44 39 40 40 41 40 40
63 64 65 67 69 70 72 73 75 76 77 77 78 78 78 78 78 78 79 80 81 81 81 82 82 82 81 80 78 77 76 75 73 72 74 75 73 72 74 76 76 77 78 79 79 79 79 80 81 81 80 78 76 76 76 74 73 70 66 62 57 56 58 60 61 61 62 62 65 67 67 66 64 60 56 52 48 46 44 47 49 43 39 39 39 39 39 40
65 66 67 69 70 71 73 74 76 77 78 79 80 80 80 81 81 81 80 80 82 83 83 83 83 83 82 81 80 79 79 78 77 76 77 75 73 73 74 74 75 76 77 79 80 80 80 81 81 80 78 78 77 77 76 74 73 71 68 63 58 58 60 61 62 62 62 64 66 67 67 67 63 59 55 51 48 47 47 50 49 42 40 39 39 39 39 39
68 69 70 71 72 73 74 76 77 78 79 81 82 83 83 83 83 83 83 83 82 83 85 86 85 84 83 82 81 81 81 82 81 81 79 76 75 75 74 74 75 75 76 78 79 80 80 81 81 79 78 77 77 78 76 74 73 71 68 63 60 62 63 63 64 64 64 66 67 67 67 66 62 58 53 49 46 45 49 53 49 43 42 41 40 40 39 39
71 72 72 73 73 74 75 77 78 79 81 82 83 84 85 86 86 86 85 86 85 84 85 87 87 86 84 83 82 82 83 84 84 83 82 79 77 76 74 74 75 75 75 77 78 79 80 81 81 80 78 77 78 78 75 75 75 72 68 64 63 65 64 64 66 66 66 68 69 67 66 65 62 57 51 49 46 44 52 56 50 45 43 42 42 42 40 38
74 74 74 74 75 75 76 77 79 80 82 83 85 86 87 88 89 89 88 87 88 87 86 87 89 88 86 84 84 84 85 85 85 84 83 82 79 77 76 75 75 75 75 76 77 78 79 80 80 80 79 79 79 77 76 77 77 73 68 66 67 67 65 65 67 67 68 69 69 67 65 64 61 54 49 48 45 46 55 56 50 45 44 44 44 42 39 37
75 75 75 75 76 77 77 78 80 81 83 84 86 87 89 90 91 91 91 90 89 90 89 89 89 89 89 87 86 85 86 86 86 85 84 83 81 79 78 77 76 75 75 75 76 77 78 79 78 79 80 80 79 78 79 80 78 73 69 67 68 68 67 67 68 68 68 70 69 66 65 63 60 54 50 48 45 49 56 56 51 46 45 45 44 41 39 37
76 76 76 77 78 79 79 80 82 83 84 86 87 88 90 91 93 93 94 93 91 91 92 91 90 89 89 89 87 86 88 89 88 85 84 84 83 81 80 79 79 77 76 76 76 77 78 77 77 78 79 80 80 80 82 82 78 72 69 69 69 69 69 69 69 68 69 71 69 65 63 62 59 54 51 51 50 53 58 57 54 48 46 46 44 42 39 37
76 76 77 78 78 79 79 80 81 82 84 85 87 89 90 92 94 95 95 95 94 93 93 94 92 91 89 89 89 88 91 91 87 85 84 83 83 83 82 82 81 80 78 77 77 77 77 76 77 78 78 79 81 82 83 82 77 71 71 72 72 71 71 71 70 69 70 71 68 65 63 61 58 53 52 54 55 57 60 58 54 51 49 48 46 43 41 39
76 76 75 75 75 75 75 76 77 79 81 83 85 87 89 92 93 95 96 96 95 94 95 95 95 93 91 90 89 90 93 91 86 85 86 85 84 84 84 83 83 82 80 79 78 77 76 77 78 79 78 79 79 80 82 80 76 75 76 76 74 73 73 72 70 70 72 72 68 65 63 61 57 54 54 56 55 56 60 58 54 53 51 49 47 44 42 40
73 72 71 70 70 70 71 71 72 74 76 78 81 83 86 89 91 93 95 95 95 94 95 96 96 95 93 91 90 93 96 92 88 88 88 86 86 86 85 84 84 84 82 81 79 78 78 78 79 79 78 78 78 78 79 77 77 78 79 78 75 74 73 72 70 71 73 72 69 66 65 61 57 57 58 58 55 55 59 58 56 55 53 51 47 45 44 42
69 67 67 66 66 66 67 67 69 70 72 74 77 79 82 84 87 89 91 93 94 94 94 96 97 96 95 91 92 97 97 93 90 89 87 87 88 88 85 84 84 85 84 83 81 80 80 81 80 78 77 77 78 77 76 76 78 79 79 77 76 74 72 70 69 71 73 71 70 68 66 61 58 61 61 59 57 57 59 59 58 56 55 52 48 47 48 46
64 64 63 63 63 64 64 65 66 67 69 71 73 75 77 80 82 84 86 89 91 93 93 95 96 97 96 92 96 100 97 93 91 88 88 88 89 89 87 84 84 84 85 84 83 83 82 82 81 78 77 77 77 77 76 76 77 77 77 76 75 74 70 69 70 72 73 71 70 68 64 60 60 65 64 60 59 59 61 60 59 57 55 53 49 48 51 49
61 60 60 60 61 61 62 63 64 65 67 69 70 71 73 75 77 79 82 84 86 89 91 93 95 97 95 94 100 101 95 93 92 90 90 91 91 91 89 86 84 84 84 84 84 84 84 83 81 79 78 76 76 77 77 77 76 75 75 74 73 70 67 69 72 74 73 71 70 67 62 61 65 68 64 61 61 61 62 61 60 58 57 55 51 50 52 51
57 57 57 57 58 59 60 61 62 63 64 66 67 67 69 71 72 74 77 79 82 84 87 90 93 95 94 96 102 100 94 95 95 94 94 92 92 92 91 89 86 85 84 84 85 85 85 84 82 79 78 77 77 77 76 77 76 75 73 69 67 64 64 69 72 73 73 71 70 66 63 66 69 68 64 61 61 62 62 61 61 60 58 56 53 51 52 53
55 54 54 55 56 57 58 60 61 61 62 62 63 63 64 65 67 69 72 75 77 79 82 87 90 91 93 98 102 100 98 98 98 96 94 92 93 94 93 90 88 87 85 85 85 85 85 84 82 80 79 78 78 75 75 76 74 72 68 63 62 62 63 68 69 70 71 71 70 67 66 70 71 68 64 63 61 61 61 61 61 60 59 57 54 53 53 54
53 53 53 53 54 55 56 58 59 60 60 60 59 57 57 58 60 64 67 70 72 74 78 82 85 87 91 98 102 102 101 99 96 95 93 93 94 95 93 90 89 88 86 86 85 84 85 84 82 80 79 78 77 76 75 72 68 67 64 62 62 61 63 65 66 66 67 68 67 66 67 70 70 68 66 64 62 62 62 62 62 61 61 58 56 55 54 54
51 51 51 51 52 54 55 56 56 57 57 56 54 52 50 51 54 59 62 65 68 71 75 78 80 84 90 97 101 103 101 98 95 94 94 94 95 95 93 91 91 90 88 86 84 83 83 82 81 81 79 77 75 73 69 63 62 64 64 63 63 62 63 64 64 64 65 66 65 65 65 66 66 66 65 64 63 63 63 63 63 63 63 60 58 57 55 55
49 49 49 49 50 52 54 54 54 54 53 51 48 47 47 49 51 55 57 60 63 67 72 74 75 80 88 94 100 102 100 97 96 95 96 96 97 96 93 92 92 91 89 86 83 82 81 81 81 79 76 72 69 67 64 63 64 66 66 65 64 63 62 63 63 64 66 66 65 64 62 62 62 63 63 63 63 62 62 63 64 65 63 60 59 57 56 57
49 48 47 47 47 49 50 51 52 51 49 47 44 43 44 47 50 51 52 55 59 63 67 69 71 77 85 92 97 100 98 97 97 96 96 97 97 96 93 92 92 91 88 85 84 83 81 80 76 71 68 67 68 68 67 68 70 69 66 64 63 62 62 62 63 65 68 68 66 64 61 59 59 60 60 59 59 59 59 61 62 63 62 59 59 58 58 58
50 48 46 45 45 45 46 46 47 47 45 43 42 41 40 42 46 47 47 50 54 58 61 65 68 74 82 89 93 97 97 96 97 97 96 97 98 96 93 91 90 89 88 87 86 85 82 76 68 64 65 69 72 72 70 71 71 69 66 64 61 60 59 60 62 66 69 69 68 65 60 58 58 58 56 55 55 55 55 56 58 58 58 57 57 58 58 58
49 47 45 44 43 42 42 42 42 41 40 39 38 38 37 37 41 43 44 46 50 54 57 60 65 72 80 85 88 93 95 94 96 97 97 97 98 97 94 91 89 88 89 90 88 85 79 70 65 66 70 72 73 73 72 72 71 70 67 64 61 58 58 59 61 65 68 69 68 64 60 58 58 57 54 54 54 52 51 52 53 53 52 53 53 54 56 57
48 47 45 42 41 40 39 39 39 37 35 34 35 35 34 34 36 39 42 45 47 50 54 58 61 69 77 81 83 87 91 92 94 96 95 96 97 96 95 91 89 90 91 90 86 82 75 69 70 74 73 72 72 72 73 73 72 69 66 63 60 59 58 57 58 63 67 67 66 63 59 58 58 56 54 54 53 51 49 49 49 49 48 48 47 48 51 53
48 47 45 42 40 38 36 36 35 34 32 31 31 31 31 31 33 35 38 43 45 45 48 52 55 63 73 78 78 81 86 89 91 93 94 95 97 97 94 91 90 90 89 87 84 81 76 75 78 78 74 73 72 71 72 72 70 67 64 61 59 59 58 57 59 65 67 66 63 60 58 57 56 55 55 55 53 51 50 49 48 47 46 45 44 45 47 49
50 48 46 42 39 36 34 32 31 30 28 28 28 28 27 28 30 33 35 39 41 39 42 48 53 61 70 75 73 74 81 86 88 91 93 94 97 97 95 92 90 88 87 86 84 81 79 80 82 80 76 75 72 70 69 68 68 66 63 60 59 59 59 60 64 68 68 63 57 55 57 56 55 55 55 54 53 52 52 50 48 46 45 45 44 44 45 47
51 50 46 42 37 33 30 29 28 27 25 24 25 24 24 24 26 30 32 34 36 36 40 47 53 60 68 71 69 71 78 82 86 90 91 93 95 96 95 92 89 86 85 86 85 83 82 82 83 81 78 76 73 69 66 66 67 65 61 60 60 60 60 63 67 69 67 59 53 54 56 54 54 54 54 53 53 53 51 50 48 47 46 45 45 45 45 46
53 51 47 42 37 32 28 26 25 24 22 20 21 20 20 22 23 26 29 30 32 34 38 45 51 59 66 67 66 70 74 79 86 89 90 92 94 95 94 90 87 86 86 87 85 83 81 81 82 80 78 76 72 67 64 64 65 62 60 62 63 62 62 65 68 69 65 59 57 57 55 53 54 55 53 52 52 52 51 50 49 48 47 47 46 45 44 44
55 52 47 43 38 33 28 25 23 22 19 17 16 16 17 19 21 23 26 28 29 31 36 43 49 55 60 61 60 63 68 77 86 88 89 92 94 94 93 89 87 87 87 86 83 81 81 81 81 80 78 74 69 64 63 63 62 61 63 66 65 64 64 67 70 70 67 63 59 55 52 51 52 52 51 50 50 50 50 52 52 50 48 47 46 45 44 43
58 54 49 45 40 35 29 26 23 21 18 16 13 12 13 15 18 20 23 26 27 29 34 40 46 50 54 56 57 60 68 78 85 86 90 93 94 94 93 90 89 89 88 84 81 82 83 82 82 81 76 71 67 65 64 62 61 64 67 68 68 67 67 69 71 71 69 65 58 52 48 47 47 48 48 47 46 49 52 55 54 51 48 47 47 47 45 44
60 57 53 47 42 37 32 27 24 22 19 16 13 10 9 11 13 16 20 24 25 28 32 36 42 46 49 53 58 61 69 78 83 85 89 91 92 95 94 93 92 91 88 84 82 83 83 82 83 80 74 71 69 67 64 61 63 68 71 70 70 69 69 71 72 73 71 62 53 48 45 44 45 46 46 46 48 52 55 55 53 50 48 47 47 46 44 43
63 60 57 51 45 39 34 29 26 23 20 17 14 11 9 8 10 12 16 20 24 27 30 34 38 42 45 51 57 62 69 78 83 85 88 89 91 94 96 96 95 92 88 84 83 82 82 82 80 76 73 72 70 68 66 63 65 71 72 72 72 71 72 73 75 76 68 54 47 46 45 45 44 42 43 47 51 52 53 53 52 51 49 48 47 45 43 43
64 62 61 56 49 42 36 32 29 25 22 19 16 13 10 8 8 10 13 16 21 25 29 32 36 40 43 48 55 62 69 77 81 84 86 87 88 90 93 93 92 90 87 83 81 81 80 79 77 76 75 74 70 69 69 67 68 71 73 74 74 74 74 74 75 72 59 47 46 46 46 46 42 40 44 48 50 49 50 52 53 51 49 48 47 45 44 43
65 63 62 59 53 47 40 35 32 28 25 21 18 15 12 9 8 8 10 12 17 22 26 30 34 38 41 46 53 60 66 72 77 81 82 82 83 86 89 89 88 87 84 82 81 80 79 78 78 79 76 73 71 69 68 66 65 67 69 71 72 73 73 72 71 65 53 46 47 47 48 46 41 42 46 48 48 48 49 51 52 51 49 48 46 46 46 45
66 64 63 60 55 49 44 39 37 33 28 24 20 17 14 11 9 8 9 10 13 18 23 27 31 35 39 44 50 57 62 66 71 76 79 80 82 84 85 86 87 86 84 84 83 81 80 79 78 76 72 70 68 67 64 61 60 64 66 67 69 69 69 68 66 61 53 49 48 48 48 45 41 40 43 45 45 46 49 51 52 51 51 49 48 48 48 47
66 65 64 61 55 50 46 44 41 37 32 26 22 18 15 12 9 7 7 8 10 14 19 24 28 32 37 41 47 53 58 61 65 70 74 77 79 80 80 82 84 84 84 83 82 80 80 77 75 72 70 69 68 67 66 63 63 65 68 68 68 67 66 66 64 61 55 52 51 49 47 43 39 38 41 44 43 43 49 52 52 52 52 52 51 50 50 48
65 65 65 63 57 52 50 48 44 39 33 28 23 19 15 12 9 7 5 6 8 11 16 21 25 29 34 39 44 48 52 57 60 63 68 71 73 75 76 79 82 83 82 80 79 77 76 75 75 74 72 71 70 69 69 65 63 66 69 67 64 63 65 66 66 62 57 55 52 49 46 43 39 40 43 44 42 43 49 52 52 52 53 54 53 52 51 51
65 65 65 64 60 56 54 52 46 40 34 29 23 18 15 12 9 6 3 3 5 8 13 18 22 26 31 36 40 44 49 54 56 58 62 66 69 72 74 77 80 80 80 78 77 75 74 75 76 74 72 71 70 70 68 65 65 68 67 63 63 66 68 67 66 62 58 56 52 49 45 42 41 44 44 41 40 42 47 51 51 52 54 54 53 52 52 52
65 64 65 64 63 59 56 52 47 41 36 29 23 18 14 11 8 5 2 1 3 7 11 16 20 24 28 33 37 41 45 49 53 55 57 62 66 68 71 75 77 78 79 79 77 75 75 76 77 75 73 72 72 72 70 68 68 68 64 64 69 71 68 66 65 60 57 55 52 48 44 41 42 45 42 39 40 43 46 49 52 53 55 55 54 52 51 52
66 65 64 64 63 60 56 51 46 40 34 28 24 19 16 12 9 6 4 4 4 7 11 16 19 23 26 30 34 39 44 47 51 53 54 57 62 65 69 73 75 77 79 79 78 77 77 77 77 77 76 75 76 74 71 67 67 66 66 69 72 70 66 64 62 59 56 55 52 48 43 40 42 43 41 39 41 43 45 48 51 53 54 55 54 53 52 52
66 64 64 63 62 59 55 51 46 39 32 27 24 20 17 15 11 9 8 8 8 9 12 15 19 21 24 29 33 37 42 47 51 54 55 56 59 63 67 71 75 78 80 80 79 79 79 78 78 79 79 79 76 71 66 64 64 65 66 68 69 67 65 63 60 57 55 54 51 48 43 40 42 43 41 40 41 42 43 46 49 52 53 54 55 54 54 53
67 64 62 61 60 58 55 52 47 40 33 28 25 22 20 18 14 12 11 10 11 12 13 15 18 20 23 27 31 35 40 45 50 55 56 57 60 64 66 70 75 79 81 81 81 81 80 79 79 81 81 77 71 66 64 64 64 65 65 65 66 65 63 61 57 55 54 53 51 48 44 42 43 44 42 41 41 41 43 45 48 50 53 54 54 56 56 55
68 64 61 59 58 58 56 53 49 42 33 28 26 24 23 20 16 14 14 13 13 15 16 17 18 20 22 25 30 34 40 45 48 52 55 57 60 64 67 71 75 77 79 81 82 82 80 80 80 80 77 72 68 67 68 67 66 65 65 65 65 64 62 59 55 53 53 53 52 50 46 44 44 43 42 42 42 41 42 44 46 49 51 52 53 55 56 56
69 64 61 59 59 60 58 54 50 42 34 28 26 25 24 21 16 14 14 15 15 16 17 18 19 20 22 25 28 32 38 44 48 51 53 56 60 64 67 70 73 76 78 80 81 82 81 79 79 77 75 73 72 72 71 69 68 66 65 64 63 62 60 58 55 53 54 54 51 49 46 43 42 42 42 42 41 39 39 41 44 48 50 50 52 53 55 57
70 65 62 60 59 60 58 54 49 43 34 28 25 25 24 20 17 15 15 15 16 17 17 17 18 20 23 25 28 32 36 42 49 51 53 55 58 62 66 69 72 76 78 79 79 79 78 77 77 77 77 78 78 77 74 72 69 65 62 60 58 58 58 57 55 53 53 52 49 47 45 43 42 43 42 41 39 36 36 38 42 45 48 49 50 51 53 55
71 67 62 59 57 58 57 54 49 43 35 27 24 24 23 19 18 17 16 15 17 17 17 16 17 18 21 23 27 31 35 41 47 51 53 55 57 60 64 67 71 74 77 77 76 75 75 74 74 75 76 76 75 75 73 69 64 60 57 55 54 55 56 56 54 51 49 49 48 46 45 44 44 43 41 39 37 35 36 38 41 43 46 48 49 51 52 54
72 68 63 59 56 55 55 53 50 45 37 28 23 22 21 19 17 17 16 14 17 18 17 16 16 17 19 21 24 29 34 39 45 48 51 53 55 58 62 65 69 72 73 75 75 75 74 74 73 73 73 72 70 69 66 61 57 55 53 53 53 55 56 55 53 50 49 49 49 47 46 44 43 41 39 37 36 35 36 38 41 43 45 47 49 50 51 52
72 67 63 58 55 53 52 51 48 46 39 30 21 19 19 18 16 16 15 14 16 17 16 15 15 16 18 20 23 27 32 37 42 46 49 51 53 57 60 63 66 69 71 73 76 76 75 75 74 72 72 72 71 68 64 60 58 56 55 55 55 55 56 56 54 51 50 51 50 48 46 44 42 40 38 37 37 36 37 39 40 43 45 46 47 48 49 50
71 66 61 57 54 51 50 48 46 44 41 33 24 17 16 16 15 15 15 15 15 14 14 14 14 15 18 20 23 26 30 35 41 46 50 51 53 55 57 60 62 65 69 73 75 76 75 74 73 73 72 72 70 68 65 63 62 60 57 56 55 55 55 54 51 49 48 49 48 46 45 43 41 40 39 39 38 37 38 39 40 42 44 45 46 46 47 48
73 67 63 58 53 50 48 47 46 43 40 36 28 18 15 15 14 14 13 14 15 14 14 15 14 16 19 22 25 28 30 34 40 45 49 50 51 52 53 56 59 62 67 72 75 75 75 73 72 73 73 71 69 67 65 64 63 61 58 55 54 54 54 52 49 47 46 46 46 45 44 42 41 40 40 39 38 36 37 40 41 42 44 45 46 47 47 48
76 68 64 59 53 49 47 47 46 42 40 38 31 20 14 13 12 13 12 12 14 15 16 17 15 17 21 25 28 30 32 35 39 44 48 49 49 50 50 52 55 59 65 71 74 75 75 75 74 73 72 70 69 67 64 63 62 60 57 55 54 54 53 51 49 46 46 47 47 47 45 43 41 40 39 39 37 36 37 40 41 42 44 45 47 48 48 48
80 70 64 59 54 49 46 45 44 42 39 37 32 23 14 11 11 12 12 12 13 14 18 20 17 18 22 26 29 31 33 35 39 43 46 46 46 48 50 51 53 57 62 69 71 72 74 75 75 74 73 71 70 68 66 63 61 59 57 55 55 55 54 51 49 48 48 49 49 47 44 42 40 40 39 39 38 38 38 40 41 42 44 47 48 48 48 48
82 73 65 60 55 50 45 42 41 40 37 34 31 25 17 11 12 13 12 13 14 15 19 22 21 21 23 25 28 30 32 33 36 39 42 42 42 45 49 52 54 56 60 65 67 67 70 73 74 74 73 72 70 67 64 63 62 60 57 56 57 57 54 51 50 49 49 49 48 46 43 41 40 40 39 39 39 38 38 40 42 43 44 46 47 47 47 47
Wind_Direction
284 282 280 278 276 274 273 271 270 269 267 266 264 262 261 259 257 256 253 251 248 247 246 245 245 244 243 242 242 242 242 242 241 239 238 237 236 236 237 236 235 235 236 236 237 236 235 236 237 237 237 237 238 239 239 238 238 238 238 237 235 235 236 236 236 236 236 238 240 242 242 243 244 245 246 249 251 252 252 252 254 256 255 253 254 255 257 257
286 283 281 278 276 274 272 270 269 267 266 265 264 262 261 259 257 256 254 252 250 248 246 245 244 244 243 242 241 241 241 241 240 239 239 238 237 236 236 236 235 235 235 235 236 236 235 236 237 237 237 237 238 238 239 238 238 238 238 236 235 235 235 236 236 236 236 237 239 241 242 243 244 245 247 248 251 252 251 250 252 254 254 253 254 255 256 257
288 285 282 279 277 274 272 270 268 266 265 263 262 261 260 258 257 256 254 252 251 249 247 245 244 244 243 242 241 241 241 240 239 238 238 239 238 236 235 236 236 235 235 235 235 235 235 236 237 237 237 237 238 238 239 239 239 238 237 236 235 235 235 236 237 236 236 237 238 240 242 243 243 245 246 248 250 253 252 250 250 251 251 252 254 254 255 256
290 288 285 281 278 275 272 270 267 266 264 262 261 260 259 258 256 255 254 252 251 249 248 246 244 243 242 241 241 240 240 240 239 238 238 238 238 237 236 235 235 235 235 235 235 235 235 236 236 237 237 237 237 238 238 238 239 238 236 235 233 234 235 235 236 236 236 236 237 238 240 243 243 243 245 248 250 252 253 251 250 249 248 249 251 252 253 256
292 289 286 282 279 275 272 269 267 265 263 261 260 259 257 256 255 254 252 251 250 249 248 246 245 243 242 241 240 240 240 240 239 239 238 237 237 238 237 236 236 235 235 235 236 236 235 235 236 236 237 237 238 238 239 239 238 236 235 233 232 233 234 235 236 236 236 236 237 238 240 243 244 244 246 248 248 250 251 252 250 247 246 245 247 249 252 256
294 290 287 283 279 275 272 269 266 264 262 260 258 257 256 255 254 253 251 250 249 248 247 246 245 243 242 240 240 240 240 240 239 239 238 238 237 237 238 237 237 236 235 235 236 236 236 236 235 236 236 236 237 238 238 238 237 236 234 233 233 233 233 234 235 236 237 238 239 239 241 243 244 245 245 246 246 247 250 251 250 247 246 246 247 250 254 258
294 290 286 283 279 276 272 269 266 263 260 258 257 255 254 253 252 252 251 249 248 247 247 246 244 243 241 240 239 239 240 240 239 238 238 237 237 236 237 237 237 237 236 235 235 236 236 236 235 235 235 236 236 237 237 238 237 236 234 233 233 233 233 234 235 235 237 238 239 239 241 243 244 244 242 242 243 243 247 249 249 247 247 249 249 251 253 256
293 290 286 282 279 276 273 270 267 264 261 258 256 254 252 251 250 250 249 248 247 246 245 245 244 243 241 239 238 238 239 239 238 237 237 237 236 235 235 236 237 236 236 235 235 235 236 236 235 235 235 235 235 236 237 238 237 236 235 234 234 233 233 234 236 236 237 239 239 239 240 241 242 242 240 240 240 240 244 248 249 249 248 250 250 250 249 251
293 289 286 282 279 276 273 270 267 264 261 259 256 253 251 250 249 248 248 247 246 244 244 244 243 242 240 239 237 237 238 238 237 237 237 237 236 236 235 235 235 235 235 235 235 235 236 236 235 235 235 235 235 235 236 237 238 237 236 235 234 233 233 234 235 236 238 239 239 239 239 240 241 240 239 241 240 241 245 248 250 250 249 249 250 250 248 248
294 290 287 283 280 277 273 270 267 264 261 259 256 254 251 249 248 247 246 245 245 243 242 242 242 241 240 238 236 235 237 237 236 236 236 236 236 235 234 234 234 235 234 234 234 235 235 235 234 234 234 234 235 235 236 237 237 236 235 235 234 233 234 234 235 237 239 240 240 240 240 240 239 239 240 242 242 243 247 248 248 248 248 248 248 249 248 245
295 291 288 284 280 277 274 271 267 264 261 258 256 254 252 250 248 246 245 244 243 242 240 240 240 240 239 237 236 234 235 235 234 234 235 235 235 234 233 233 233 234 234 234 234 234 234 234 234 233 233 234 235 235 236 236 236 235 235 235 235 235 235 236 236 238 241 241 241 241 241 240 239 240 240 242 242 243 247 249 248 248 248 247 247 247 247 243
296 293 289 285 282 278 275 271 268 265 262 258 256 254 252 250 248 246 245 244 242 240 239 238 238 238 237 236 235 234 234 233 232 233 234 234 235 235 233 232 232 233 233 233 233 233 233 233 233 233 233 233 234 235 235 235 235 235 235 236 236 236 236 238 238 240 242 242 243 242 242 242 242 242 241 240 240 241 245 248 249 249 249 248 246 246 245 241
298 294 291 287 284 280 276 273 269 266 263 260 257 254 252 250 249 247 245 243 242 240 238 236 236 236 236 235 234 234 233 232 231 231 232 233 233 234 233 232 232 232 233 233 233 233 233 233 233 232 232 232 233 234 234 235 235 236 236 236 236 236 237 239 240 241 242 243 244 244 244 244 243 243 241 239 239 240 243 246 248 249 250 249 246 245 245 241
300 296 292 289 285 281 278 274 271 268 264 262 259 256 253 251 249 247 245 243 241 239 237 236 234 234 234 232 233 234 233 231 230 229 230 231 232 232 232 231 231 231 232 233 233 233 233 233 232 232 232 232 232 233 233 234 234 235 235 235 236 237 237 239 240 242 242 243 244 245 245 244 243 243 242 240 240 241 243 245 247 248 249 249 246 244 245 243
302 298 293 289 286 282 279 277 273 270 267 264 261 258 255 252 250 247 245 243 241 239 237 235 234 233 232 231 232 234 232 230 228 227 227 228 230 231 231 230 230 230 230 231 232 233 233 233 233 232 232 232 232 232 233 234 234 235 235 235 237 237 237 239 240 242 243 243 244 244 244 244 244 244 243 242 241 242 243 245 246 247 248 248 247 245 244 243
304 299 295 290 287 284 281 279 276 274 271 268 265 261 258 255 252 249 246 244 242 239 237 235 233 232 230 229 231 232 231 229 227 227 227 227 228 230 230 230 229 229 229 230 231 232 233 233 233 232 232 232 233 233 233 234 234 236 236 236 237 237 237 239 240 242 243 243 243 243 242 244 244 245 244 243 243 243 244 245 246 247 247 247 246 244 243 242
307 302 298 294 290 287 283 280 278 276 274 272 269 266 261 257 254 251 247 244 242 240 238 235 233 231 229 229 230 231 230 228 227 226 226 227 227 229 229 229 230 230 229 230 230 231 232 232 232 232 232 232 233 233 234 235 236 238 238 237 237 236 236 238 239 241 242 243 242 241 241 243 245 245 245 245 245 245 245 246 247 247 247 246 245 244 243 242
311 306 302 298 294 290 286 283 281 279 278 276 275 272 267 261 256 251 248 244 242 239 237 235 233 230 228 228 230 230 229 228 226 225 225 226 227 228 228 228 229 229 229 230 230 231 232 232 231 232 232 232 233 235 237 238 239 239 237 236 235 235 236 238 239 240 241 241 241 239 239 241 244 245 245 245 245 245 245 247 248 248 247 246 245 244 243 242
314 309 305 300 295 292 289 288 286 284 282 281 278 274 268 262 256 251 247 243 240 238 236 234 232 229 228 228 228 229 228 227 226 224 223 224 226 226 226 226 228 229 229 230 230 231 232 232 231 232 232 234 235 236 237 237 237 236 235 234 233 233 234 236 237 238 239 239 239 239 238 239 242 243 244 244 244 245 245 247 248 248 248 247 247 245 244 243
319 315 310 305 300 295 293 291 289 288 286 284 279 272 265 260 256 252 247 242 240 237 234 232 230 228 228 227 227 227 227 226 225 224 223 224 225 226 225 225 226 228 229 229 230 231 231 231 232 233 234 235 234 233 232 233 233 233 233 233 232 232 232 234 236 237 238 238 238 238 237 237 239 242 243 244 244 244 245 246 247 248 249 248 248 247 245 244
324 320 316 311 306 301 297 294 290 289 287 284 279 273 265 259 255 253 248 242 238 236 233 230 228 227 228 227 226 226 226 225 224 223 222 222 224 225 225 225 225 226 228 229 229 230 231 231 232 233 234 233 232 231 229 230 231 232 231 231 231 231 232 233 234 236 237 237 237 237 236 237 238 240 242 243 243 242 243 244 246 247 248 248 247 247 246 245
329 326 322 318 313 308 303 298 294 291 288 284 279 274 268 260 255 252 248 243 237 233 230 227 225 225 226 227 225 225 224 224 223 223 222 222 223 224 224 224 224 224 226 227 228 229 230 231 232 233 232 232 232 231 230 230 230 230 230 230 229 230 230 232 234 236 238 238 238 237 236 237 238 239 240 241 242 241 241 243 245 246 247 247 246 246 245 245
334 332 329 324 319 314 308 303 299 295 290 285 280 276 270 264 257 250 246 243 237 231 228 225 221 222 225 225 224 224 223 223 223 222 222 222 222 223 224 223 222 222 224 225 226 228 229 229 231 231 231 231 231 230 230 230 230 230 230 230 230 229 230 231 235 238 238 237 238 237 235 236 238 239 240 240 241 242 241 241 243 245 245 246 245 245 245 244
340 339 336 331 326 320 313 307 302 298 293 287 282 277 272 265 258 251 244 241 238 231 227 225 221 221 224 224 222 221 222 222 222 222 221 221 222 223 223 222 222 221 222 223 224 225 225 226 228 230 230 231 230 229 229 230 230 230 230 229 230 230 230 230 233 236 236 235 236 237 236 236 237 239 239 240 240 241 241 241 242 243 244 245 244 243 243 243
347 345 342 336 330 324 317 311 306 301 295 289 283 278 272 264 257 252 245 240 238 232 226 224 220 220 222 223 220 218 220 221 221 221 221 220 221 222 222 222 222 221 221 221 221 222 223 224 227 228 228 229 230 229 229 229 229 229 229 229 229 229 229 229 231 235 236 235 235 237 237 235 235 237 238 239 239 239 241 241 241 243 244 244 244 242 241 241
352 350 346 340 334 328 321 315 310 304 298 291 284 278 271 263 256 252 248 242 237 230 224 221 218 217 220 220 217 214 216 219 220 221 220 220 220 221 221 221 221 221 221 220 219 219 220 223 226 227 228 228 228 227 227 228 228 227 227 227 227 228 228 229 232 235 237 235 233 234 235 233 233 234 235 237 238 238 239 241 242 242 243 244 244 243 242 241
356 355 350 345 341 336 329 322 316 310 305 296 285 277 269 262 256 252 248 242 235 228 222 221 219 217 218 218 213 211 212 214 218 220 219 219 220 221 221 220 220 220 220 220 218 218 219 221 225 227 228 229 228 227 227 227 227 226 225 225 225 226 227 229 232 234 235 233 231 231 232 232 232 233 232 233 237 238 238 239 240 240 240 242 243 243 243 242
359 359 356 351 347 343 338 331 324 318 312 303 289 275 266 259 255 253 249 242 234 227 221 220 220 218 218 217 212 208 208 211 216 217 217 217 218 219 220 220 220 220 220 220 218 218 218 220 223 225 227 228 229 228 228 227 225 223 223 223 223 224 225 228 231 233 233 231 230 230 232 233 233 234 234 233 235 238 239 237 237 237 238 239 241 243 243 243
1 2 1 357 353 349 345 340 333 327 321 314 300 279 263 255 252 251 250 245 234 226 221 219 220 219 216 215 210 205 205 210 213 214 214 215 215 217 218 218 218 219 219 218 217 217 218 218 220 223 224 226 227 228 227 226 224 221 222 221 221 222 223 227 230 232 231 230 229 229 230 232 234 235 235 233 232 234 235 235 235 235 236 238 240 241 242 243
1 3 4 2 358 354 351 348 343 338 332 326 315 296 275 260 253 250 250 247 236 225 220 218 218 218 214 211 209 204 203 208 211 212 213 213 212 214 214 215 216 217 218 217 216 217 218 218 219 221 222 223 225 225 226 225 222 220 220 220 220 221 222 226 229 231 231 230 229 229 230 231 233 235 235 232 229 228 231 234 234 234 235 237 239 240 241 242
2 4 5 4 2 360 357 355 353 348 342 336 331 320 302 283 267 256 250 248 240 226 218 215 215 215 212 208 207 205 203 206 208 210 212 212 211 212 212 212 213 215 215 215 216 216 217 219 220 220 221 222 223 223 223 223 221 221 220 219 219 219 221 225 229 232 232 230 230 230 229 229 231 233 235 233 231 229 230 233 233 232 233 235 237 239 240 241
2 5 6 5 4 4 2 1 360 357 352 346 342 336 324 310 288 267 254 247 243 232 220 213 211 210 209 206 205 206 205 205 206 207 210 211 210 211 211 212 212 213 213 213 215 216 217 219 220 221 221 221 221 222 222 221 220 221 221 220 220 220 221 225 230 234 233 230 230 230 229 229 228 229 233 234 233 231 231 232 232 231 231 233 236 238 239 240
2 5 6 5 4 5 5 5 5 4 360 354 348 344 336 324 307 280 260 247 243 237 225 215 209 206 205 203 204 206 207 206 206 206 207 209 210 210 211 212 212 212 212 212 213 214 216 217 219 220 221 221 221 222 224 224 224 225 224 223 224 224 226 228 232 236 234 230 230 230 230 228 226 229 234 235 234 231 230 231 232 231 231 232 235 237 239 239
2 5 6 5 5 6 7 8 8 6 3 360 354 347 340 329 315 292 267 250 241 236 227 218 211 204 201 200 202 206 208 208 206 206 206 206 208 209 209 210 211 211 211 211 212 212 214 216 219 221 221 222 223 223 224 225 226 227 226 225 226 227 228 230 233 235 234 231 230 230 229 228 227 231 237 239 235 232 230 231 231 230 230 231 233 235 237 237
3 5 6 5 5 7 10 10 8 5 2 1 358 350 342 335 322 302 279 256 241 234 226 218 211 205 199 197 200 204 207 208 207 206 205 205 206 207 208 208 210 211 211 211 211 211 212 213 217 220 221 222 222 223 223 221 221 223 223 223 224 226 227 228 230 231 230 229 229 228 227 226 225 228 235 237 235 231 230 230 230 229 230 230 232 233 235 235
3 5 6 5 6 9 11 10 7 4 1 2 1 354 346 341 332 317 293 263 242 231 223 214 209 205 198 195 197 201 204 206 207 206 205 204 204 205 206 207 209 210 211 211 212 212 211 211 212 216 219 221 221 222 223 222 222 223 224 222 223 225 226 226 227 227 227 228 228 227 226 224 223 226 231 235 234 230 229 230 230 230 230 230 231 232 233 234
4 6 6 5 7 10 10 8 5 3 2 3 2 359 354 351 345 337 316 267 238 224 216 208 202 201 197 193 194 197 199 202 204 205 204 203 203 203 203 205 207 208 210 211 211 211 211 210 211 213 215 219 221 222 223 222 222 224 224 222 222 223 223 224 225 225 226 227 228 227 226 223 223 227 230 235 236 233 231 230 230 231 231 230 229 231 232 233
4 6 7 7 8 9 9 7 4 2 2 3 5 7 7 6 7 9 18 139 200 205 200 196 193 193 193 191 190 191 194 198 200 202 202 201 200 200 201 202 204 206 207 209 209 209 210 210 210 210 212 215 218 221 221 220 221 223 222 220 221 223 223 224 225 225 225 227 228 228 227 225 226 229 230 232 235 234 232 230 230 231 232 231 230 230 232 234
4 6 7 8 8 8 9 7 5 3 2 4 9 15 19 22 31 44 63 101 142 175 180 181 182 184 187 186 186 187 189 191 195 197 199 200 198 198 199 200 202 203 205 207 207 207 208 209 209 209 210 212 215 218 220 220 221 222 220 219 221 222 222 224 225 224 224 226 227 228 227 226 228 231 230 231 232 233 232 232 233 232 233 233 231 231 232 235
4 6 7 7 8 9 10 9 6 4 3 8 15 22 30 33 40 58 78 100 123 148 164 168 170 175 179 179 181 185 185 186 189 191 193 195 195 196 197 198 199 201 203 204 205 206 206 207 208 209 210 212 214 217 219 222 223 223 221 222 223 222 222 223 224 223 224 225 226 227 226 225 227 229 229 229 231 231 231 232 234 235 235 234 233 232 233 235
4 6 6 7 8 10 11 11 8 6 7 14 21 27 36 39 43 59 76 93 117 133 144 152 158 165 172 173 175 179 181 184 188 189 189 190 192 193 195 197 198 200 201 201 203 205 205 205 207 209 211 212 213 215 217 220 222 223 223 222 223 223 223 223 223 223 224 224 224 225 223 222 225 227 228 228 231 231 230 231 234 236 237 236 234 233 234 235
4 5 5 7 9 11 12 12 9 7 9 18 26 32 36 39 45 62 80 96 114 124 130 140 149 156 163 167 170 174 178 181 185 188 187 187 190 191 192 195 197 199 200 200 201 203 205 204 205 208 210 211 211 213 215 216 218 220 221 221 221 221 221 222 222 222 223 223 223 223 222 222 225 227 228 230 232 232 232 232 234 236 237 237 237 236 235 235
3 4 5 7 10 11 12 12 10 7 10 20 30 36 39 42 49 66 87 101 111 118 125 134 143 150 156 160 166 173 178 179 181 185 187 186 188 190 191 193 196 197 199 201 201 202 203 204 205 206 207 208 209 211 213 214 216 217 219 220 220 219 219 219 219 220 221 221 221 222 223 223 225 227 229 231 233 234 235 235 235 236 237 238 238 238 238 238
3 4 5 7 10 11 10 12 11 8 9 18 31 39 42 47 55 65 81 95 104 111 119 128 138 147 152 157 162 168 176 180 180 182 185 186 187 189 190 192 195 196 198 201 202 202 202 204 205 205 205 207 207 208 210 213 215 216 217 218 219 219 219 219 218 219 220 221 220 221 222 222 223 226 228 230 233 235 236 236 236 237 238 238 239 240 240 240
3 4 4 6 10 11 9 10 13 10 8 15 30 40 44 49 60 69 76 90 99 104 112 122 133 144 150 156 162 166 172 179 181 182 185 186 187 189 190 192 194 196 197 198 201 202 202 204 206 206 207 209 210 210 211 212 214 216 217 218 218 217 217 218 219 218 219 220 220 220 220 220 222 224 227 230 232 234 235 235 236 238 239 239 239 239 240 241
3 3 3 5 8 11 10 9 12 13 9 11 27 42 47 50 61 72 77 89 100 105 111 121 131 143 149 155 162 166 169 176 182 184 185 186 187 189 191 192 193 196 196 196 199 202 202 203 205 207 209 210 212 214 214 214 216 217 218 218 217 216 215 216 217 217 217 218 218 218 218 220 222 224 227 229 230 232 234 235 236 238 239 240 240 240 241 242
4 2 2 3 5 10 11 10 11 13 10 7 20 42 53 56 61 71 78 84 94 103 113 123 132 141 147 152 159 165 168 172 178 181 184 186 188 189 191 192 193 195 195 195 197 200 202 202 203 205 208 209 210 212 213 213 214 215 216 216 216 215 214 214 215 216 216 216 217 217 217 219 222 224 226 228 230 233 234 235 236 239 240 241 241 242 243 244
4 2 2 3 4 7 10 11 12 14 11 5 10 31 51 60 64 72 80 85 90 99 112 120 128 136 142 148 154 161 166 169 174 178 182 186 188 189 190 191 192 194 195 195 198 200 202 203 203 204 207 209 211 212 212 211 211 213 214 215 214 214 214 214 215 217 217 217 218 218 219 219 221 224 227 228 230 233 235 235 237 239 242 243 242 242 243 244
5 3 2 3 3 5 9 11 12 14 14 8 5 15 41 56 65 73 82 93 99 105 112 115 123 133 139 146 151 155 161 167 172 176 181 186 188 189 189 189 190 193 194 196 198 199 201 203 204 205 206 208 210 213 214 213 212 211 213 213 213 213 214 213 214 217 217 217 218 218 219 219 220 223 227 230 233 236 238 238 239 240 242 244 244 244 243 244
5 4 2 2 2 3 7 10 10 12 15 12 4 5 28 50 64 74 81 92 103 112 115 113 121 135 142 146 148 150 157 165 171 176 182 187 187 187 187 187 188 192 194 196 199 199 200 202 204 206 207 208 209 211 213 215 215 213 212 211 211 212 213 212 213 216 216 215 215 216 216 217 219 223 227 232 236 237 239 239 239 240 242 244 245 245 245 245
6 4 2 1 1 2 6 9 9 9 14 15 7 1 14 43 62 73 81 91 102 113 114 113 122 135 141 144 145 146 154 164 171 175 181 187 187 185 184 184 186 190 193 197 200 200 199 201 203 206 207 208 210 210 211 213 215 215 214 211 210 211 212 211 212 215 215 214 215 216 216 216 220 225 228 232 235 237 239 240 241 241 242 244 245 246 247 247
6 5 3 1 360 1 4 7 8 8 11 16 12 6 8 32 58 67 75 86 95 106 111 114 122 130 135 138 139 143 152 162 170 174 179 186 188 185 184 183 184 188 193 197 199 199 199 200 203 206 208 209 211 211 211 213 214 215 215 212 210 210 210 210 213 215 215 214 215 217 217 216 218 224 228 231 234 237 239 241 242 242 243 245 246 248 249 249
Height
10639 10636 10634 10631 10629 10627 10625 10624 10623 10622 10622 10622 10622 10622 10623 10624 10626 10627 10629 10631 10632 10634 10635 10637 10639 10642 10647 10652 10656 10660 10664 10667 10670 10676 10678 10673 10676 10687 10689 10691 10697 10700 10704 10707 10710 10715 10718 10719 10719 10722 10727 10733 10739 10740 10744 10751 10755 10761 10770 10781 10789 10793 10794 10794 10793 10795 10795 10793 10791 10789 10790 10794 10798 10804 10812 10819 10828 10835 10841 10838 10831 10839 10844 10844 10846 10847 10849 10851
10629 10626 10623 10620 10617 10615 10613 10612 10611 10610 10609 10609 10609 10609 10610 10611 10613 10614 10616 10618 10620 10622 10624 10626 10628 10632 10637 10642 10647 10651 10654 10657 10661 10666 10663 10663 10673 10680 10679 10683 10689 10693 10696 10698 10702 10706 10710 10711 10711 10716 10723 10730 10734 10733 10737 10745 10750 10758 10768 10777 10785 10788 10787 10785 10786 10788 10789 10789 10785 10784 10786 10790 10796 10803 10810 10819 10826 10830 10835 10831 10829 10836 10840 10840 10842 10843 10845 10845
10617 10614 10611 10608 10605 10602 10600 10598 10597 10597 10596 10595 10595 10596 10597 10598 10599 10601 10603 10605 10608 10610 10612 10614 10617 10621 10627 10632 10638 10642 10644 10646 10650 10652 10652 10659 10667 10669 10672 10676 10680 10684 10687 10690 10693 10697 10701 10703 10705 10712 10719 10724 10728 10727 10731 10739 10745 10754 10762 10773 10781 10780 10778 10779 10780 10781 10783 10782 10778 10780 10783 10785 10793 10801 10808 10817 10823 10825 10826 10824 10827 10834 10837 10837 10838 10839 10841 10841
10605 10601 10597 10594 10591 10589 10587 10584 10583 10582 10582 10581 10581 10582 10582 10584 10585 10587 10589 10592 10594 10597 10599 10602 10605 10609 10616 10622 10627 10631 10633 10635 10638 10641 10645 10652 10657 10659 10665 10669 10671 10677 10680 10682 10686 10690 10693 10696 10701 10707 10712 10718 10720 10720 10727 10734 10739 10747 10756 10768 10772 10768 10771 10774 10772 10773 10775 10773 10772 10776 10779 10782 10790 10799 10808 10816 10821 10822 10817 10814 10823 10831 10833 10834 10834 10834 10836 10838
10591 10587 10583 10580 10576 10574 10571 10569 10568 10567 10567 10566 10566 10567 10567 10569 10570 10572 10575 10577 10581 10584 10586 10589 10593 10598 10605 10611 10616 10620 10622 10623 10627 10631 10637 10644 10648 10653 10658 10661 10664 10669 10673 10675 10679 10683 10685 10690 10695 10700 10706 10712 10712 10716 10724 10727 10730 10739 10751 10760 10761 10760 10765 10766 10765 10767 10767 10765 10768 10774 10778 10781 10787 10799 10810 10814 10818 10817 10807 10805 10817 10826 10827 10829 10829 10830 10833 10835
10576 10571 10567 10563 10559 10557 10555 10553 10552 10550 10551 10550 10550 10551 10551 10553 10555 10557 10560 10563 10567 10569 10573 10576 10580 10586 10593 10600 10605 10608 10610 10612 10618 10623 10629 10636 10642 10647 10650 10654 10657 10661 10666 10669 10672 10675 10678 10683 10689 10695 10701 10704 10706 10713 10717 10715 10720 10733 10744 10751 10752 10755 10758 10757 10758 10761 10759 10759 10766 10773 10777 10779 10786 10800 10808 10809 10814 10811 10800 10799 10810 10820 10822 10824 10824 10827 10831 10833
10560 10555 10550 10546 10542 10539 10537 10535 10534 10533 10533 10532 10533 10533 10535 10537 10538 10541 10544 10548 10552 10555 10559 10563 10567 10573 10580 10588 10593 10597 10600 10602 10608 10614 10620 10627 10633 10639 10642 10646 10650 10653 10658 10662 10665 10667 10671 10676 10683 10688 10692 10696 10700 10706 10706 10704 10713 10728 10739 10744 10745 10748 10751 10750 10751 10754 10753 10755 10762 10769 10774 10777 10785 10797 10802 10804 10810 10804 10794 10795 10804 10814 10817 10818 10821 10824 10827 10829
10544 10538 10533 10528 10525 10521 10518 10517 10515 10514 10514 10514 10515 10515 10517 10519 10521 10525 10527 10532 10537 10541 10545 10548 10554 10559 10567 10575 10580 10587 10588 10588 10595 10604 10610 10617 10624 10630 10633 10637 10640 10644 10648 10653 10657 10659 10663 10670 10677 10680 10684 10689 10692 10696 10696 10697 10709 10725 10734 10736 10737 10741 10744 10743 10744 10748 10749 10750 10757 10766 10771 10775 10783 10792 10796 10799 10802 10796 10789 10792 10800 10808 10812 10813 10816 10820 10822 10824
10527 10521 10515 10510 10506 10502 10500 10498 10496 10495 10495 10495 10496 10497 10499 10501 10504 10507 10510 10516 10520 10526 10530 10534 10540 10546 10554 10562 10569 10577 10572 10573 10589 10599 10604 10609 10615 10619 10622 10625 10629 10633 10638 10643 10647 10652 10657 10664 10668 10671 10677 10680 10682 10688 10689 10693 10709 10723 10725 10724 10728 10732 10734 10736 10739 10742 10742 10744 10752 10761 10766 10772 10781 10787 10790 10792 10796 10792 10786 10790 10797 10802 10805 10808 10811 10814 10817 10820
10510 10503 10498 10493 10488 10484 10482 10480 10478 10477 10477 10477 10477 10479 10480 10483 10486 10489 10493 10498 10503 10509 10514 10520 10525 10532 10541 10548 10558 10563 10556 10565 10583 10588 10591 10597 10601 10606 10610 10615 10620 10624 10629 10633 10638 10645 10650 10654 10657 10661 10667 10671 10676 10681 10684 10693 10706 10711 10710 10713 10720 10724 10727 10731 10736 10737 10736 10740 10749 10756 10761 10768 10777 10782 10784 10786 10790 10789 10784 10787 10793 10796 10799 10803 10806 10809 10812 10815
10493 10486 10481 10476 10472 10468 10465 10463 10461 10460 10460 10459 10459 10461 10462 10465 10468 10471 10476 10480 10486 10492 10498 10505 10510 10518 10527 10536 10547 10546 10541 10556 10570 10572 10578 10586 10589 10592 10597 10604 10610 10614 10619 10624 10630 10636 10639 10642 10646 10652 10661 10666 10671 10675 10680 10690 10695 10697 10700 10706 10714 10719 10722 10728 10734 10733 10731 10737 10744 10750 10755 10763 10773 10777 10779 10782 10786 10785 10780 10781 10786 10789 10794 10798 10802 10804 10806 10808
10478 10471 10465 10460 10456 10453 10450 10448 10445 10444 10443 10442 10443 10443 10445 10447 10450 10454 10459 10463 10469 10474 10482 10489 10496 10505 10512 10526 10534 10525 10529 10547 10555 10561 10570 10577 10578 10581 10588 10595 10601 10605 10610 10616 10621 10626 10629 10631 10637 10647 10655 10659 10663 10668 10675 10682 10684 10688 10694 10702 10709 10714 10720 10727 10732 10728 10727 10734 10738 10743 10749 10759 10768 10769 10771 10777 10780 10780 10776 10776 10779 10783 10788 10793 10798 10800 10799 10801
10464 10457 10451 10446 10442 10438 10435 10433 10431 10429 10427 10426 10427 10427 10429 10431 10434 10438 10442 10447 10452 10458 10466 10473 10482 10490 10499 10516 10515 10505 10520 10536 10543 10555 10561 10564 10567 10570 10578 10586 10592 10598 10602 10607 10612 10616 10619 10622 10631 10641 10646 10650 10657 10663 10668 10673 10676 10682 10690 10698 10703 10710 10720 10725 10725 10722 10724 10730 10732 10738 10746 10755 10759 10757 10762 10770 10773 10774 10772 10771 10774 10778 10782 10787 10793 10794 10792 10794
10452 10444 10438 10433 10428 10424 10421 10418 10416 10415 10413 10411 10411 10413 10415 10416 10419 10423 10426 10432 10436 10443 10451 10458 10468 10474 10488 10504 10493 10490 10514 10526 10534 10544 10545 10548 10554 10558 10566 10574 10581 10588 10593 10598 10602 10607 10611 10615 10625 10632 10638 10646 10651 10654 10660 10664 10670 10676 10683 10692 10699 10710 10720 10719 10716 10715 10719 10725 10727 10733 10742 10747 10746 10746 10755 10764 10767 10768 10767 10767 10769 10772 10776 10780 10785 10787 10786 10787
10440 10433 10427 10421 10416 10412 10408 10405 10402 10400 10399 10397 10397 10399 10400 10402 10405 10408 10412 10417 10422 10430 10437 10444 10453 10461 10479 10487 10475 10482 10505 10512 10518 10523 10526 10536 10543 10547 10554 10562 10570 10577 10583 10588 10592 10598 10602 10608 10619 10627 10635 10640 10641 10647 10654 10658 10665 10671 10679 10691 10700 10710 10714 10709 10709 10711 10714 10719 10722 10730 10735 10734 10734 10739 10749 10755 10759 10761 10761 10763 10764 10766 10769 10773 10779 10781 10781 10781
10428 10422 10416 10410 10405 10401 10396 10393 10390 10387 10385 10384 10384 10385 10386 10388 10391 10395 10399 10403 10409 10418 10424 10431 10439 10451 10467 10468 10460 10471 10485 10491 10501 10510 10520 10529 10533 10536 10542 10553 10562 10567 10574 10578 10582 10589 10594 10602 10613 10621 10627 10631 10636 10645 10649 10652 10662 10670 10680 10693 10698 10703 10705 10701 10704 10706 10708 10712 10717 10724 10727 10724 10726 10734 10741 10747 10751 10754 10756 10757 10758 10760 10763 10767 10772 10774 10774 10775
10417 10411 10405 10400 10395 10390 10386 10381 10378 10375 10373 10371 10371 10371 10374 10377 10380 10382 10386 10391 10398 10405 10411 10417 10426 10440 10452 10450 10448 10455 10465 10478 10494 10505 10514 10519 10522 10525 10534 10547 10554 10558 10565 10568 10575 10582 10587 10597 10606 10613 10620 10626 10633 10638 10643 10653 10666 10673 10681 10690 10692 10696 10697 10695 10698 10701 10701 10704 10710 10716 10718 10718 10721 10727 10734 10740 10745 10747 10749 10750 10751 10754 10756 10760 10765 10766 10769 10770
10408 10401 10395 10389 10384 10378 10374 10370 10367 10364 10362 10360 10360 10360 10363 10366 10369 10370 10374 10380 10386 10392 10397 10403 10414 10428 10434 10434 10434 10439 10452 10471 10486 10496 10504 10508 10511 10516 10527 10539 10543 10548 10556 10561 10570 10577 10582 10591 10599 10605 10613 10621 10629 10637 10649 10661 10668 10669 10674 10680 10683 10687 10690 10690 10693 10694 10693 10695 10700 10706 10711 10714 10716 10721 10727 10733 10737 10739 10742 10743 10744 10746 10748 10753 10757 10760 10764 10764
10401 10393 10386 10380 10374 10368 10363 10359 10356 10354 10352 10350 10350 10351 10352 10354 10356 10357 10362 10367 10372 10377 10382 10389 10402 10414 10417 10419 10422 10428 10443 10460 10472 10483 10492 10495 10498 10505 10518 10528 10533 10541 10549 10557 10566 10571 10577 10584 10591 10601 10613 10625 10633 10642 10651 10655 10655 10656 10662 10669 10674 10679 10683 10684 10685 10685 10684 10687 10691 10697 10705 10709 10711 10714 10720 10725 10730 10733 10735 10736 10737 10738 10741 10747 10751 10754 10757 10757
10392 10385 10378 10371 10365 10359 10354 10350 10346 10343 10342 10341 10341 10341 10342 10343 10343 10345 10350 10355 10359 10364 10370 10378 10389 10399 10401 10403 10408 10418 10432 10446 10458 10471 10481 10486 10489 10497 10508 10518 10525 10534 10543 10553 10559 10564 10570 10578 10590 10607 10618 10624 10626 10631 10637 10639 10641 10646 10653 10661 10667 10673 10677 10677 10678 10676 10675 10679 10684 10690 10699 10705 10707 10709 10714 10720 10724 10727 10729 10729 10730 10732 10736 10741 10744 10747 10750 10750
10384 10376 10369 10363 10357 10351 10346 10342 10337 10335 10333 10331 10331 10331 10333 10334 10333 10335 10339 10343 10347 10351 10358 10367 10376 10384 10386 10389 10398 10408 10419 10433 10447 10458 10469 10476 10480 10488 10499 10510 10520 10530 10539 10545 10549 10555 10563 10578 10597 10609 10610 10609 10611 10617 10625 10628 10632 10638 10647 10655 10661 10668 10672 10672 10670 10666 10667 10672 10677 10685 10695 10701 10702 10704 10709 10714 10717 10720 10723 10723 10724 10727 10731 10734 10736 10739 10742 10743
10377 10369 10362 10355 10349 10343 10339 10334 10330 10327 10325 10323 10323 10322 10323 10325 10325 10327 10330 10332 10335 10339 10346 10354 10364 10371 10371 10375 10387 10396 10406 10421 10434 10444 10456 10464 10470 10478 10489 10500 10514 10524 10529 10532 10539 10550 10566 10586 10598 10596 10594 10596 10601 10609 10616 10620 10625 10633 10641 10649 10657 10663 10665 10665 10662 10659 10662 10666 10672 10682 10693 10696 10696 10700 10705 10708 10710 10714 10717 10718 10719 10722 10726 10727 10730 10733 10735 10737
10371 10363 10355 10349 10342 10337 10332 10327 10323 10321 10318 10317 10315 10315 10316 10316 10317 10319 10320 10322 10324 10329 10336 10342 10352 10358 10358 10365 10376 10387 10399 10413 10423 10434 10446 10457 10464 10470 10477 10491 10505 10510 10515 10524 10537 10552 10570 10585 10583 10577 10582 10589 10595 10603 10609 10614 10620 10629 10638 10646 10654 10657 10659 10661 10658 10653 10654 10660 10667 10678 10688 10691 10692 10696 10701 10702 10705 10709 10712 10713 10715 10718 10721 10722 10725 10727 10729 10732
10365 10357 10349 10343 10337 10331 10326 10322 10318 10315 10313 10311 10309 10309 10309 10309 10310 10310 10312 10313 10314 10323 10331 10337 10347 10351 10352 10356 10365 10380 10395 10403 10413 10424 10436 10447 10455 10460 10471 10485 10493 10498 10509 10523 10535 10548 10563 10569 10564 10567 10577 10581 10587 10596 10602 10609 10618 10627 10636 10644 10649 10651 10654 10656 10649 10640 10643 10653 10664 10675 10683 10687 10689 10692 10695 10697 10701 10704 10706 10708 10711 10713 10716 10717 10720 10722 10724 10727
10360 10351 10344 10338 10332 10326 10321 10317 10313 10310 10308 10306 10304 10304 10303 10303 10303 10303 10305 10306 10310 10319 10326 10331 10338 10342 10342 10344 10357 10377 10388 10394 10406 10415 10425 10437 10444 10451 10463 10473 10482 10494 10507 10516 10527 10540 10551 10554 10553 10560 10569 10573 10581 10590 10599 10607 10614 10623 10632 10640 10643 10644 10647 10645 10636 10630 10636 10653 10668 10673 10677 10682 10685 10686 10689 10693 10696 10699 10700 10703 10707 10709 10711 10713 10715 10717 10718 10720
10355 10347 10340 10334 10328 10322 10317 10313 10309 10306 10303 10301 10300 10299 10298 10298 10298 10298 10299 10302 10306 10313 10318 10320 10325 10328 10329 10335 10353 10368 10375 10387 10398 10404 10415 10427 10435 10443 10451 10462 10476 10491 10501 10507 10517 10528 10539 10545 10547 10554 10561 10567 10575 10585 10595 10603 10608 10619 10630 10634 10634 10635 10637 10634 10627 10626 10637 10655 10665 10665 10667 10675 10680 10681 10685 10688 10690 10694 10697 10700 10702 10705 10706 10708 10709 10710 10712 10714
10351 10343 10336 10329 10324 10319 10314 10309 10305 10302 10300 10298 10296 10295 10294 10293 10293 10293 10295 10297 10301 10306 10310 10313 10316 10319 10321 10328 10344 10355 10367 10383 10386 10390 10405 10417 10427 10434 10443 10459 10473 10483 10490 10496 10507 10520 10533 10539 10541 10549 10557 10563 10572 10585 10594 10598 10605 10618 10623 10622 10624 10627 10628 10625 10620 10623 10636 10649 10653 10655 10662 10670 10674 10676 10680 10683 10685 10690 10693 10695 10697 10699 10701 10702 10704 10705 10707 10709
10348 10340 10333 10326 10320 10316 10311 10306 10302 10299 10296 10294 10293 10291 10290 10290 10289 10290 10291 10293 10296 10300 10304 10307 10309 10313 10319 10328 10343 10354 10367 10373 10370 10379 10395 10404 10415 10425 10439 10456 10467 10474 10479 10488 10506 10519 10526 10531 10535 10542 10551 10560 10573 10584 10589 10593 10602 10610 10609 10611 10615 10618 10618 10614 10612 10618 10629 10638 10645 10654 10662 10666 10670 10673 10677 10681 10684 10687 10689 10689 10689 10692 10695 10698 10699 10701 10702 10705
10345 10338 10331 10324 10318 10313 10308 10304 10300 10297 10294 10291 10290 10288 10287 10287 10286 10286 10287 10289 10292 10295 10298 10301 10304 10309 10317 10328 10339 10348 10357 10357 10358 10370 10379 10387 10402 10416 10432 10447 10455 10462 10469 10485 10502 10508 10514 10523 10528 10534 10547 10560 10570 10576 10580 10588 10597 10597 10595 10600 10605 10608 10609 10605 10605 10612 10620 10630 10644 10655 10660 10663 10667 10669 10673 10680 10683 10682 10680 10680 10682 10687 10691 10694 10695 10696 10699 10701
10343 10335 10328 10322 10317 10311 10307 10302 10298 10294 10292 10289 10287 10286 10284 10284 10283 10284 10284 10286 10287 10289 10293 10296 10299 10305 10313 10323 10330 10337 10344 10346 10352 10361 10367 10376 10392 10406 10419 10432 10441 10451 10463 10480 10492 10498 10509 10517 10520 10531 10547 10556 10560 10566 10573 10582 10585 10581 10583 10591 10596 10600 10601 10598 10599 10602 10612 10631 10647 10654 10658 10660 10662 10665 10670 10674 10674 10672 10673 10675 10680 10684 10687 10689 10691 10693 10696 10699
10341 10334 10326 10320 10315 10310 10305 10301 10297 10293 10290 10287 10285 10284 10282 10281 10281 10281 10282 10283 10284 10286 10288 10291 10296 10301 10309 10316 10323 10330 10334 10335 10342 10352 10360 10370 10383 10395 10405 10415 10428 10441 10457 10473 10484 10495 10505 10511 10519 10534 10543 10546 10551 10559 10566 10571 10572 10570 10576 10584 10588 10592 10593 10592 10591 10594 10613 10639 10649 10652 10654 10655 10658 10663 10665 10665 10665 10668 10672 10674 10676 10680 10683 10686 10688 10691 10694 10696
10341 10333 10326 10319 10314 10309 10304 10300 10296 10292 10289 10286 10284 10282 10280 10279 10279 10279 10279 10281 10282 10284 10285 10287 10291 10296 10303 10311 10317 10322 10325 10327 10334 10344 10353 10365 10379 10391 10401 10413 10427 10440 10455 10471 10483 10493 10503 10512 10523 10530 10533 10538 10546 10552 10556 10560 10563 10565 10571 10577 10580 10584 10586 10587 10588 10597 10623 10643 10645 10647 10648 10650 10657 10659 10658 10659 10662 10667 10670 10670 10671 10677 10681 10683 10685 10688 10690 10692
10341 10333 10326 10320 10314 10308 10304 10299 10295 10291 10288 10285 10282 10280 10279 10278 10277 10277 10277 10278 10280 10282 10284 10286 10288 10292 10299 10306 10311 10316 10319 10325 10332 10341 10352 10365 10378 10388 10400 10415 10430 10442 10457 10470 10479 10488 10498 10508 10513 10516 10525 10535 10542 10547 10553 10560 10565 10567 10572 10577 10581 10584 10587 10591 10594 10606 10628 10639 10639 10641 10642 10647 10653 10654 10653 10656 10659 10662 10664 10665 10668 10674 10678 10680 10682 10684 10685 10687
10342 10334 10327 10321 10315 10309 10303 10298 10294 10290 10287 10284 10281 10279 10278 10277 10276 10276 10276 10276 10278 10280 10283 10285 10288 10291 10296 10302 10308 10312 10317 10324 10332 10340 10349 10361 10371 10382 10396 10412 10425 10439 10451 10460 10469 10480 10491 10499 10506 10516 10528 10536 10542 10548 10555 10562 10566 10567 10571 10576 10580 10584 10589 10595 10599 10609 10624 10631 10633 10635 10637 10644 10650 10651 10651 10651 10654 10659 10661 10662 10665 10670 10674 10676 10677 10678 10680 10682
10343 10335 10328 10322 10317 10310 10303 10298 10294 10290 10287 10284 10281 10279 10277 10276 10275 10275 10275 10275 10276 10278 10281 10284 10287 10290 10294 10299 10305 10309 10316 10325 10332 10339 10348 10358 10369 10381 10396 10411 10424 10435 10445 10454 10465 10476 10486 10498 10509 10519 10527 10533 10539 10544 10547 10552 10555 10557 10561 10566 10573 10580 10587 10592 10595 10604 10616 10622 10625 10629 10634 10641 10645 10647 10645 10645 10651 10656 10656 10658 10661 10665 10668 10670 10672 10674 10676 10679
10345 10337 10330 10324 10318 10310 10302 10298 10295 10292 10288 10285 10282 10279 10277 10276 10275 10275 10274 10275 10275 10277 10280 10283 10287 10290 10294 10298 10303 10309 10316 10324 10332 10341 10351 10360 10370 10382 10396 10411 10422 10432 10444 10456 10467 10476 10486 10498 10505 10512 10519 10525 10531 10534 10539 10546 10551 10551 10553 10564 10575 10580 10582 10585 10588 10597 10607 10613 10618 10624 10630 10637 10641 10641 10639 10642 10647 10650 10651 10653 10656 10660 10661 10663 10667 10670 10672 10675
10347 10339 10332 10325 10318 10310 10304 10299 10297 10294 10290 10286 10283 10281 10279 10277 10276 10275 10275 10275 10276 10277 10280 10283 10286 10290 10294 10297 10302 10308 10315 10323 10331 10341 10351 10360 10370 10381 10394 10406 10416 10429 10444 10456 10466 10477 10487 10494 10499 10506 10514 10520 10526 10529 10534 10542 10545 10543 10552 10568 10572 10568 10570 10575 10582 10593 10602 10608 10614 10620 10626 10633 10635 10635 10637 10641 10644 10645 10646 10649 10651 10653 10654 10657 10662 10666 10669 10670
10349 10342 10335 10328 10320 10313 10308 10304 10300 10296 10292 10289 10286 10283 10280 10279 10277 10276 10275 10275 10276 10278 10280 10283 10286 10290 10294 10298 10303 10309 10315 10323 10332 10341 10351 10360 10370 10381 10392 10401 10413 10427 10439 10449 10460 10471 10478 10484 10491 10499 10507 10512 10516 10518 10524 10533 10536 10540 10553 10561 10556 10556 10566 10574 10581 10592 10600 10605 10611 10616 10623 10628 10630 10633 10637 10639 10639 10639 10641 10643 10645 10647 10648 10652 10657 10662 10664 10666
10351 10344 10337 10331 10325 10319 10313 10308 10303 10299 10295 10292 10288 10285 10282 10281 10279 10278 10277 10277 10278 10280 10282 10284 10287 10291 10295 10299 10304 10308 10314 10322 10332 10341 10351 10360 10370 10381 10390 10399 10410 10422 10432 10442 10454 10463 10469 10476 10484 10491 10497 10500 10503 10508 10519 10529 10533 10538 10546 10547 10546 10555 10567 10572 10580 10590 10596 10601 10607 10613 10619 10624 10627 10631 10634 10635 10634 10634 10637 10639 10640 10642 10644 10648 10653 10657 10660 10661
10354 10347 10341 10335 10329 10324 10318 10312 10307 10303 10299 10295 10291 10287 10285 10283 10282 10280 10280 10280 10280 10282 10284 10287 10289 10293 10296 10300 10304 10309 10315 10321 10329 10337 10347 10357 10368 10377 10386 10396 10406 10415 10425 10437 10447 10453 10459 10469 10478 10483 10486 10490 10498 10510 10523 10531 10533 10536 10541 10543 10548 10557 10564 10570 10578 10586 10592 10597 10603 10609 10615 10620 10623 10625 10628 10630 10629 10631 10634 10636 10636 10638 10641 10644 10649 10653 10655 10657
10357 10350 10345 10339 10333 10327 10321 10315 10310 10307 10303 10298 10294 10291 10288 10286 10285 10284 10283 10284 10284 10285 10287 10290 10292 10296 10299 10302 10306 10312 10317 10323 10329 10335 10344 10354 10364 10373 10383 10393 10400 10408 10417 10427 10436 10444 10452 10462 10469 10474 10479 10489 10505 10517 10523 10526 10527 10531 10537 10543 10549 10556 10562 10568 10575 10582 10588 10593 10598 10604 10610 10614 10617 10620 10623 10625 10624 10627 10631 10633 10634 10635 10636 10640 10645 10647 10650 10652
10360 10355 10350 10344 10336 10329 10323 10318 10314 10310 10306 10301 10298 10295 10292 10291 10290 10288 10288 10288 10289 10289 10291 10293 10296 10299 10302 10305 10309 10314 10319 10324 10331 10338 10345 10352 10361 10369 10378 10387 10394 10404 10413 10421 10429 10439 10449 10457 10463 10471 10482 10496 10507 10510 10511 10514 10518 10523 10530 10537 10543 10550 10558 10565 10573 10579 10583 10587 10593 10599 10604 10609 10613 10617 10619 10619 10620 10625 10628 10631 10632 10632 10633 10636 10639 10642 10644 10647
10363 10358 10352 10345 10337 10331 10326 10322 10318 10314 10310 10306 10302 10300 10297 10296 10295 10294 10293 10293 10293 10294 10295 10297 10300 10302 10304 10308 10312 10316 10321 10326 10333 10340 10346 10352 10359 10366 10374 10382 10391 10401 10411 10419 10426 10434 10444 10453 10461 10471 10483 10491 10495 10497 10501 10506 10510 10516 10524 10531 10539 10548 10555 10561 10568 10573 10576 10582 10589 10594 10600 10606 10610 10613 10615 10615 10618 10623 10626 10628 10628 10628 10629 10631 10633 10636 10638 10641
10367 10361 10354 10348 10341 10335 10331 10327 10323 10319 10316 10312 10308 10304 10302 10301 10300 10300 10299 10298 10298 10299 10301 10302 10304 10305 10307 10310 10313 10318 10323 10329 10334 10340 10346 10351 10358 10365 10372 10380 10388 10397 10405 10415 10425 10434 10444 10452 10461 10469 10474 10476 10480 10485 10491 10498 10504 10513 10522 10531 10540 10547 10552 10557 10562 10567 10572 10579 10585 10591 10597 10602 10606 10608 10609 10612 10616 10620 10622 10623 10623 10623 10624 10626 10628 10630 10633 10636
10370 10363 10357 10352 10347 10341 10336 10332 10328 10324 10321 10317 10313 10309 10308 10307 10305 10304 10304 10304 10303 10304 10306 10307 10308 10310 10311 10314 10316 10319 10324 10330 10335 10341 10346 10352 10358 10365 10371 10378 10387 10395 10403 10415 10427 10437 10446 10453 10461 10467 10471 10475 10480 10485 10490 10499 10509 10518 10526 10533 10540 10545 10549 10553 10558 10564 10571 10576 10582 10587 10593 10597 10601 10603 10606 10610 10614 10616 10618 10618 10619 10619 10620 10621 10623 10625 10628 10631
10372 10365 10360 10355 10351 10347 10342 10337 10332 10329 10326 10323 10319 10315 10313 10312 10310 10309 10308 10308 10307 10307 10309 10310 10311 10313 10315 10318 10321 10323 10326 10331 10337 10343 10349 10354 10359 10365 10371 10378 10387 10395 10404 10415 10426 10435 10442 10450 10458 10466 10473 10480 10487 10492 10499 10509 10517 10522 10527 10532 10537 10541 10545 10549 10554 10561 10567 10571 10577 10583 10589 10594 10597 10600 10603 10607 10610 10612 10613 10613 10614 10614 10615 10616 10619 10621 10624 10627
10377 10370 10365 10359 10355 10351 10347 10343 10338 10333 10330 10328 10325 10320 10318 10316 10315 10313 10313 10313 10311 10311 10312 10313 10314 10316 10318 10320 10324 10326 10329 10333 10339 10346 10352 10356 10360 10365 10372 10379 10386 10395 10404 10414 10423 10430 10438 10447 10455 10463 10470 10477 10482 10489 10498 10507 10513 10516 10521 10527 10532 10536 10541 10546 10551 10557 10563 10567 10574 10581 10587 10591 10594 10596 10600 10603 10605 10607 10607 10608 10609 10610 10611 10613 10615 10618 10620 10622
10382 10377 10371 10366 10360 10355 10352 10348 10343 10338 10335 10333 10330 10326 10323 10320 10319 10318 10317 10316 10315 10315 10316 10317 10318 10319 10321 10323 10325 10329 10333 10337 10342 10348 10353 10357 10361 10366 10372 10379 10387 10396 10405 10413 10420 10428 10436 10445 10453 10460 10466 10473 10479 10485 10493 10500 10505 10510 10515 10521 10527 10532 10537 10543 10549 10555 10560 10565 10572 10579 10584 10588 10590 10593 10595 10598 10600 10601 10602 10604 10605 10606 10607 10608 10611 10613 10615 10617
10387 10381 10374 10369 10364 10360 10355 10351 10347 10343 10339 10336 10334 10331 10327 10325 10323 10321 10320 10319 10318 10319 10320 10321 10322 10323 10324 10325 10327 10331 10336 10341 10346 10351 10355 10359 10363 10368 10375 10382 10389 10396 10404 10412 10418 10425 10434 10443 10451 10457 10463 10471 10477 10484 10491 10496 10501 10507 10512 10518 10524 10529 10534 10540 10545 10551 10557 10563 10569 10575 10581 10584 10587 10589 10591 10593 10595 10598 10600 10600 10601 10602 10603 10604 10606 10608 10610 10611
10390 10384 10377 10372 10368 10364 10359 10354 10350 10347 10343 10340 10338 10335 10332 10329 10327 10325 10323 10323 10322 10322 10322 10323 10325 10326 10327 10328 10330 10333 10338 10343 10348 10353 10357 10361 10365 10370 10377 10385 10391 10398 10405 10410 10415 10422 10431 10440 10448 10454 10462 10469 10475 10482 10489 10495 10501 10506 10511 10516 10522 10526 10531 10536 10542 10547 10553 10559 10565 10571 10576 10581 10584 10585 10587 10589 10592 10594 10595 10596 10597 10598 10599 10600 10601 10603 10605 10607
10393 10387 10381 10376 10372 10367 10363 10358 10355 10352 10348 10345 10343 10340 10336 10333 10331 10328 10327 10326 10326 10326 10325 10325 10328 10331 10331 10332 10334 10336 10340 10346 10351 10356 10361 10365 10369 10373 10379 10386 10392 10398 10405 10409 10413 10421 10430 10438 10445 10453 10460 10466 10472 10478 10485 10493 10499 10504 10509 10514 10519 10523 10528 10533 10538 10543 10549 10555 10561 10567 10573 10578 10580 10581 10583 10585 10587 10589 10590 10591 10592 10593 10594 10595 10596 10598 10600 10602
10398 10391 10385 10380 10375 10371 10367 10363 10359 10356 10354 10351 10348 10345 10341 10338 10335 10333 10332 10331 10331 10330 10329 10330 10332 10335 10337 10338 10339 10341 10345 10351 10355 10360 10365 10371 10375 10378 10381 10385 10390 10397 10403 10408 10413 10421 10429 10436 10444 10451 10458 10464 10470 10477 10485 10491 10495 10500 10506 10511 10516 10520 10525 10531 10536 10540 10545 10552 10558 10563 10569 10573 10575 10576 10579 10581 10582 10584 10585 10586 10586 10587 10589 10590 10592 10594 10596 10597